Location: Mococo
(38.0255°N, 122.1161°W)
Time: 01:20:48
(UTC+00:00)

Cosmos 2369 - Pass Details

Date: 13 February 2026
Orbit: 840 x 853 km, 71.0° (Epoch: 10 March)

Event Time Altitude Azimuth Distance (km) Brightness Sun altitude
Rises 13:54:58 0° 213° (SSW) 3,394 6.6 -13.5°
Reaches altitude 10° 13:57:27 10° 217° (SW) 2,460 5.8 -13.0°
Maximum altitude 14:02:59 56° 295° (WNW) 995 3.8 -11.9°
Drops below altitude 10° 14:08:33 10° 14° (NNE) 2,466 6.2 -10.8°
Sets 14:11:04 0° 19° (NNE) 3,403 7.0 -10.4°
